| time (UTC) | temp C | wind direction | speed KPH | gust KPH | rain 1hr cm | rain 24hr cm | rain mn cm | humidity % | barometer mb |
| 20260502123024 | 22 | 89 | 6.4 | 9.7 | 0.00 | 0.00 | 0.00 | 36 | 1022.5 |
| 20260502122019 | 22 | 81 | 4.8 | 11.3 | 0.00 | 0.00 | 0.00 | 36 | 1022.5 |
| 20260502121033 | 22 | 69 | 3.2 | 8.0 | 0.00 | 0.00 | 0.00 | 36 | 1022.9 |
| 20260502115049 | 22 | 84 | 6.4 | 11.3 | 0.00 | 0.00 | 0.00 | 36 | 1022.9 |
| 20260502114038 | 22 | 46 | 3.2 | 6.4 | 0.00 | 0.00 | 0.00 | 36 | 1023.2 |
| 20260502113026 | 21 | 70 | 3.2 | 6.4 | 0.00 | 0.00 | 0.00 | 35 | 1023.2 |
| 20260502112044 | 21 | 82 | 4.8 | 9.7 | 0.00 | 0.00 | 0.00 | 39 | 1023.2 |
| 20260502111042 | 22 | 85 | 3.2 | 11.3 | 0.00 | 0.00 | 0.00 | 38 | 1023.5 |
| 20260502110027 | 21 | 58 | 1.6 | 4.8 | 0.00 | 0.00 | 0.00 | 36 | 1023.5 |
| 20260502105021 | 21 | 83 | 4.8 | 8.0 | 0.00 | 0.00 | 0.00 | 39 | 1023.5 |
| 20260502104021 | 21 | 94 | 3.2 | 9.7 | 0.00 | 0.00 | 0.00 | 38 | 1023.9 |
| 20260502103021 | 21 | 65 | 3.2 | 6.4 | 0.00 | 0.00 | 0.00 | 41 | 1023.9 |
| 20260502102053 | 21 | 73 | 3.2 | 4.8 | 0.00 | 0.00 | 0.00 | 41 | 1023.9 |
| 20260502101026 | 20 | 126 | 4.8 | 12.9 | 0.00 | 0.00 | 0.00 | 42 | 1023.9 |
| 20260502100533 | 21 | 80 | 4.8 | 9.7 | 0.00 | 0.00 | 0.00 | 42 | 1024.6 |
| 20260502091028 | 20 | 83 | 3.2 | 6.4 | 0.00 | 0.00 | 0.00 | 43 | 1025.0 |
| 20260502071051 | 18 | 64 | 0.0 | 3.2 | 0.00 | 0.00 | 0.00 | 53 | 1025.5 |
| 20260502070033 | 18 | 65 | 1.6 | 4.8 | 0.00 | 0.00 | 0.00 | 54 | 1025.2 |
| 20260502065035 | 18 | 116 | 0.0 | 3.2 | 0.00 | 0.00 | 0.00 | 54 | 1025.3 |
| 20260502064027 | 17 | 81 | 0.0 | 4.8 | 0.00 | 0.00 | 0.00 | 54 | 1025.5 |
| 20260502063042 | 17 | 86 | 0.0 | 1.6 | 0.00 | 0.00 | 0.00 | 55 | 1025.6 |
| 20260502062032 | 17 | 80 | 0.0 | 1.6 | 0.00 | 0.00 | 0.00 | 56 | 1025.6 |
| 20260502061024 | 16 | 3 | 0.0 | 0.0 | 0.00 | 0.00 | 0.00 | 58 | 1025.5 |
| 20260502060025 | 16 | 343 | 0.0 | 0.0 | 0.00 | 0.00 | 0.00 | 58 | 1025.2 |
| 20260502055020 | 14 | 0.0 | 0.0 | 0.00 | 0.00 | 0.00 | 61 | 1025.2 | |
| 20260502054033 | 13 | 0.0 | 0.0 | 0.00 | 0.00 | 0.00 | 64 | 1025.5 | |
| 20260502053023 | 12 | 0.0 | 0.0 | 0.00 | 0.00 | 0.00 | 67 | 1025.5 | |
| 20260502052032 | 12 | 0.0 | 0.0 | 0.00 | 0.00 | 0.00 | 69 | 1025.4 | |
| 20260502051035 | 9 | 0.0 | 0.0 | 0.00 | 0.00 | 0.00 | 79 | 1025.0 | |
| 20260502050049 | 7 | 0.0 | 0.0 | 0.00 | 0.00 | 0.00 | 88 | 1024.9 | |
| 20260502045057 | 5 | 0.0 | 0.0 | 0.00 | 0.00 | 0.00 | 91 | 1024.7 | |
| 20260502044026 | 3 | 0.0 | 0.0 | 0.00 | 0.00 | 0.00 | 92 | 1024.6 | |
| 20260502043113 | 2 | 0.0 | 0.0 | 0.00 | 0.00 | 0.00 | 92 | 1024.9 | |
| 20260502042054 | 2 | 0.0 | 0.0 | 0.00 | 0.00 | 0.00 | 92 | 1024.9 | |
| 20260502041036 | 2 | 0.0 | 0.0 | 0.00 | 0.00 | 0.00 | 93 | 1024.5 | |
| 20260502040037 | 1 | 0.0 | 0.0 | 0.00 | 0.00 | 0.00 | 93 | 1024.5 | |
| 20260502035030 | 1 | 0.0 | 0.0 | 0.00 | 0.00 | 0.00 | 93 | 1024.5 | |
| 20260502034032 | 2 | 0.0 | 0.0 | 0.00 | 0.00 | 0.00 | 92 | 1024.6 | |
| 20260502033027 | 2 | 0.0 | 0.0 | 0.00 | 0.00 | 0.00 | 92 | 1024.7 | |
| 20260502032053 | 1 | 0.0 | 0.0 | 0.00 | 0.00 | 0.00 | 92 | 1024.7 | |
| 20260502031050 | 2 | 0.0 | 0.0 | 0.00 | 0.00 | 0.00 | 92 | 1024.7 | |
| 20260502030028 | 2 | 0.0 | 0.0 | 0.00 | 0.00 | 0.00 | 91 | 1024.7 | |
| 20260502025027 | 2 | 0.0 | 0.0 | 0.00 | 0.00 | 0.00 | 91 | 1024.7 | |
| 20260502024048 | 2 | 0.0 | 0.0 | 0.00 | 0.00 | 0.00 | 91 | 1024.7 | |
| 20260502023044 | 2 | 0.0 | 0.0 | 0.00 | 0.00 | 0.00 | 91 | 1024.8 | |
| 20260502022022 | 2 | 0.0 | 0.0 | 0.00 | 0.00 | 0.00 | 91 | 1024.8 | |
| 20260502021021 | 2 | 0.0 | 0.0 | 0.00 | 0.00 | 0.00 | 90 | 1024.8 | |
| 20260502020028 | 2 | 0.0 | 0.0 | 0.00 | 0.00 | 0.00 | 90 | 1024.7 | |
| 20260502015037 | 2 | 0.0 | 0.0 | 0.00 | 0.00 | 0.00 | 90 | 1024.6 | |
| 20260502014047 | 2 | 0.0 | 0.0 | 0.00 | 0.00 | 0.00 | 89 | 1024.3 | |
| 20260502013019 | 3 | 0.0 | 0.0 | 0.00 | 0.00 | 0.00 | 89 | 1025.0 | |
| 20260502012019 | 3 | 0.0 | 0.0 | 0.00 | 0.00 | 0.00 | 89 | 1025.1 | |
| 20260502011027 | 3 | 0.0 | 0.0 | 0.00 | 0.00 | 0.00 | 88 | 1025.1 | |
| 20260502010031 | 3 | 0.0 | 0.0 | 0.00 | 0.00 | 0.00 | 88 | 1024.7 | |
| 20260502005052 | 3 | 0.0 | 0.0 | 0.00 | 0.00 | 0.00 | 88 | 1024.7 | |
| 20260502004027 | 3 | 0.0 | 0.0 | 0.00 | 0.00 | 0.00 | 87 | 1025.0 | |
| 20260502003028 | 3 | 0.0 | 0.0 | 0.00 | 0.00 | 0.00 | 87 | 1025.0 | |
| 20260502002027 | 4 | 0.0 | 0.0 | 0.00 | 0.00 | 0.00 | 86 | 1025.1 | |
| 20260502001057 | 4 | 0.0 | 0.0 | 0.00 | 0.00 | 0.00 | 85 | 1025.1 | |
| 20260502000047 | 4 | 0.0 | 0.0 | 0.00 | 0.00 | 0.00 | 85 | 1025.1 | |
| 20260501235119 | 4 | 0.0 | 0.0 | 0.00 | 0.00 | 0.00 | 85 | 1025.1 | |
| 20260501234025 | 5 | 0.0 | 0.0 | 0.00 | 0.00 | 0.00 | 85 | 1025.1 | |
| 20260501233056 | 5 | 0.0 | 0.0 | 0.00 | 0.00 | 0.00 | 84 | 1025.0 | |
| 20260501232019 | 5 | 0.0 | 0.0 | 0.00 | 0.00 | 0.00 | 84 | 1024.9 | |
| 20260501231047 | 5 | 0.0 | 0.0 | 0.00 | 0.00 | 0.00 | 83 | 1024.9 | |
| 20260501230025 | 5 | 0.0 | 0.0 | 0.00 | 0.00 | 0.00 | 83 | 1025.3 | |
| 20260501225018 | 5 | 0.0 | 0.0 | 0.00 | 0.00 | 0.00 | 83 | 1025.4 | |
| 20260501224046 | 5 | 0.0 | 0.0 | 0.00 | 0.00 | 0.00 | 82 | 1025.1 | |
| 20260501223030 | 5 | 0.0 | 0.0 | 0.00 | 0.00 | 0.00 | 82 | 1025.4 | |
| 20260501222027 | 5 | 0.0 | 0.0 | 0.00 | 0.00 | 0.00 | 82 | 1025.3 | |
| 20260501221151 | 6 | 0.0 | 0.0 | 0.00 | 0.00 | 0.00 | 81 | 1025.0 | |
| 20260501220520 | 6 | 0.0 | 0.0 | 0.00 | 0.00 | 0.00 | 80 | 1025.4 | |
| 20260501215026 | 6 | 0.0 | 0.0 | 0.00 | 0.00 | 0.00 | 80 | 1025.4 | |
| 20260501214022 | 6 | 0.0 | 0.0 | 0.00 | 0.00 | 0.00 | 80 | 1025.1 | |
| 20260501213022 | 6 | 0.0 | 0.0 | 0.00 | 0.00 | 0.00 | 79 | 1025.1 | |
| 20260501212057 | 7 | 0.0 | 0.0 | 0.00 | 0.00 | 0.00 | 78 | 1025.1 | |
| 20260501211020 | 7 | 0.0 | 0.0 | 0.00 | 0.00 | 0.00 | 78 | 1025.4 | |
| 20260501210025 | 7 | 0.0 | 0.0 | 0.00 | 0.00 | 0.00 | 77 | 1025.4 | |
| 20260501205026 | 7 | 0.0 | 0.0 | 0.00 | 0.00 | 0.00 | 77 | 1025.5 | |
| 20260501204029 | 8 | 0.0 | 0.0 | 0.00 | 0.00 | 0.00 | 76 | 1025.1 | |
| 20260501203022 | 8 | 0.0 | 0.0 | 0.00 | 0.00 | 0.00 | 74 | 1025.1 | |
| 20260501202029 | 8 | 0.0 | 0.0 | 0.00 | 0.00 | 0.00 | 74 | 1025.1 | |
| 20260501201022 | 9 | 0.0 | 0.0 | 0.00 | 0.00 | 0.00 | 72 | 1025.1 | |
| 20260501200041 | 10 | 0.0 | 0.0 | 0.00 | 0.00 | 0.00 | 70 | 1025.1 | |
| 20260501195033 | 10 | 0.0 | 0.0 | 0.00 | 0.00 | 0.00 | 68 | 1025.1 | |
| 20260501194022 | 10 | 0.0 | 0.0 | 0.00 | 0.00 | 0.00 | 68 | 1025.1 | |
| 20260501193027 | 11 | 0.0 | 0.0 | 0.00 | 0.00 | 0.00 | 66 | 1024.8 | |
| 20260501192022 | 12 | 0.0 | 0.0 | 0.00 | 0.00 | 0.00 | 62 | 1024.7 | |
| 20260501191026 | 12 | 0.0 | 0.0 | 0.00 | 0.00 | 0.00 | 59 | 1024.8 | |
| 20260501190054 | 13 | 0.0 | 0.0 | 0.00 | 0.00 | 0.00 | 58 | 1024.5 | |
| 20260501185020 | 13 | 0.0 | 0.0 | 0.00 | 0.00 | 0.00 | 56 | 1024.5 | |
| 20260501184021 | 14 | 0.0 | 0.0 | 0.00 | 0.00 | 0.00 | 57 | 1024.5 | |
| 20260501183029 | 15 | 0.0 | 0.0 | 0.00 | 0.00 | 0.00 | 54 | 1024.5 | |
| 20260501182050 | 15 | 0.0 | 0.0 | 0.00 | 0.00 | 0.00 | 52 | 1024.4 | |
| 20260501181027 | 16 | 0.0 | 0.0 | 0.00 | 0.00 | 0.00 | 50 | 1024.1 | |
| 20260501180034 | 16 | 64 | 0.0 | 1.6 | 0.00 | 0.00 | 0.00 | 49 | 1024.1 |
| 20260501175027 | 17 | 78 | 0.0 | 0.0 | 0.00 | 0.00 | 0.00 | 49 | 1024.1 |
| 20260501174055 | 17 | 71 | 0.0 | 0.0 | 0.00 | 0.00 | 0.00 | 46 | 1023.7 |
| 20260501173035 | 18 | 72 | 1.6 | 4.8 | 0.00 | 0.00 | 0.00 | 45 | 1023.8 |
| 20260501172019 | 18 | 70 | 0.0 | 1.6 | 0.00 | 0.00 | 0.00 | 44 | 1023.7 |
| 20260501171055 | 18 | 67 | 1.6 | 4.8 | 0.00 | 0.00 | 0.00 | 43 | 1023.7 |
| 20260501170051 | 18 | 75 | 1.6 | 3.2 | 0.00 | 0.00 | 0.00 | 42 | 1023.7 |
| 20260501165046 | 19 | 70 | 0.0 | 1.6 | 0.00 | 0.00 | 0.00 | 41 | 1023.7 |
| 20260501164022 | 19 | 72 | 1.6 | 6.4 | 0.00 | 0.00 | 0.00 | 41 | 1023.7 |
| 20260501163023 | 19 | 76 | 0.0 | 3.2 | 0.00 | 0.00 | 0.00 | 40 | 1024.0 |
| 20260501162021 | 19 | 72 | 1.6 | 4.8 | 0.00 | 0.00 | 0.00 | 40 | 1024.0 |
| 20260501161031 | 19 | 45 | 0.0 | 1.6 | 0.00 | 0.00 | 0.00 | 40 | 1023.7 |
| 20260501160036 | 19 | 89 | 0.0 | 4.8 | 0.00 | 0.00 | 0.00 | 41 | 1024.0 |
| 20260501154035 | 20 | 85 | 1.6 | 4.8 | 0.00 | 0.00 | 0.00 | 38 | 1024.0 |
| 20260501153022 | 20 | 94 | 0.0 | 1.6 | 0.00 | 0.00 | 0.00 | 38 | 1024.4 |
| 20260501152020 | 21 | 77 | 1.6 | 4.8 | 0.00 | 0.00 | 0.00 | 38 | 1024.4 |
| 20260501151027 | 21 | 86 | 1.6 | 8.0 | 0.00 | 0.00 | 0.00 | 37 | 1024.4 |
| 20260501150040 | 21 | 83 | 3.2 | 8.0 | 0.00 | 0.00 | 0.00 | 38 | 1024.4 |
| 20260501145027 | 20 | 0.0 | 0.0 | 0.00 | 0.00 | 0.00 | 39 | 1024.4 | |
| 20260501144019 | 21 | 94 | 0.0 | 1.6 | 0.00 | 0.00 | 0.00 | 37 | 1024.4 |